Location: Waco, TX
(31.5480°N, 97.1670°W)
Time: 11:58:56
(UTC-05:00)

ISS - Pass Details

Date: 14 August 2018
Orbit: 401 x 409 km, 51.6° (Epoch: 19 August)

Event Time Altitude Azimuth Distance (km) Brightness Sun altitude
Rises 20:35:06 0° 296° (WNW) 2,316 2.7 -5.3°
Reaches altitude 10° 20:37:42 10° 274° (W) 1,455 0.5 -5.8°
Maximum altitude 20:39:49 16° 233° (SW) 1,137 -1.1 -6.3°
Drops below altitude 10° 20:41:56 10° 192° (SSW) 1,452 -1.1 -6.7°
Sets 20:44:32 0° 170° (S) 2,308 -0.3 -7.2°
